Hourly Weather Bolshoe Ivanovo

Today, 30 July, Friday

Time Temperature Precipitation Wind Pressure Humidity
00:00 +17°C° 0 mm 2 mps 746 mmHg 96%
01:00 +17°C° 0 mm 2 mps 746 mmHg 96%
02:00 +17°C° 0 mm 2 mps 746 mmHg 96%
03:00 +16°C° 0 mm 2 mps 746 mmHg 96%
04:00 +16°C° 0 mm 2 mps 746 mmHg 95%
05:00 +16°C° 0 mm 2 mps 746 mmHg 95%
06:00 +17°C° 0 mm 2 mps 746 mmHg 90%
07:00 +18°C° 0 mm 2 mps 746 mmHg 86%
08:00 +18°C° 0 mm 3 mps 746 mmHg 81%
09:00 +19°C° 0 mm 3 mps 746 mmHg 76%
10:00 +20°C° 0 mm 3 mps 746 mmHg 71%
11:00 +20°C° 0 mm 3 mps 746 mmHg 65%
12:00 +22°C° 0 mm 3 mps 746 mmHg 57%
13:00 +23°C° 0 mm 4 mps 746 mmHg 49%
14:00 +26°C° 0 mm 4 mps 745 mmHg 41%
15:00 +26°C° 0 mm 4 mps 745 mmHg 41%
16:00 +26°C° 0 mm 4 mps 744 mmHg 40%
17:00 +26°C° 0 mm 3 mps 744 mmHg 39%
18:00 +24°C° 0 mm 3 mps 744 mmHg 44%
19:00 +21°C° 0 mm 3 mps 744 mmHg 49%
20:00 +20°C° 0 mm 2 mps 744 mmHg 54%
21:00 +19°C° 0 mm 3 mps 744 mmHg 54%
22:00 +19°C° 0 mm 3 mps 744 mmHg 53%
23:00 +19°C° 0 mm 4 mps 743 mmHg 53%

Tomorrow, 31 July, Saturday

Time Temperature Precipitation Wind Pressure Humidity
00:00 +19°C° 0.1 mm 5 mps 743 mmHg 56%
01:00 +17°C° 0.1 mm 5 mps 743 mmHg 58%
02:00 +17°C° 0.1 mm 6 mps 742 mmHg 61%
03:00 +17°C° 0.3 mm 5 mps 742 mmHg 66%
04:00 +17°C° 0.3 mm 5 mps 742 mmHg 70%
05:00 +17°C° 0.3 mm 5 mps 742 mmHg 75%
06:00 +17°C° 0.1 mm 5 mps 743 mmHg 74%
07:00 +19°C° 0.1 mm 5 mps 743 mmHg 73%
08:00 +20°C° 0.1 mm 5 mps 743 mmHg 72%
09:00 +21°C° 0.1 mm 6 mps 744 mmHg 68%
10:00 +21°C° 0.1 mm 6 mps 744 mmHg 65%
11:00 +22°C° 0.1 mm 6 mps 744 mmHg 61%
12:00 +22°C° 0.3 mm 6 mps 745 mmHg 66%
13:00 +22°C° 0.3 mm 5 mps 745 mmHg 71%
14:00 +22°C° 0.3 mm 5 mps 745 mmHg 75%
15:00 +22°C° 0.2 mm 5 mps 746 mmHg 73%
16:00 +22°C° 0.2 mm 4 mps 746 mmHg 71%
17:00 +23°C° 0.2 mm 4 mps 746 mmHg 69%
18:00 +21°C° 0.1 mm 3 mps 746 mmHg 74%
19:00 +20°C° 0.1 mm 2 mps 746 mmHg 78%
20:00 +19°C° 0.1 mm 2 mps 747 mmHg 83%
21:00 +19°C° 0 mm 2 mps 747 mmHg 84%
22:00 +18°C° 0 mm 2 mps 747 mmHg 86%
23:00 +18°C° 0 mm 2 mps 747 mmHg 88%

Day after tomorrow, 1 August, Sunday

Time Temperature Precipitation Wind Pressure Humidity
00:00 +17°C° 0 mm 2 mps 747 mmHg 87%
01:00 +17°C° 0 mm 2 mps 747 mmHg 87%
02:00 +17°C° 0 mm 2 mps 747 mmHg 86%
03:00 +17°C° 0 mm 2 mps 746 mmHg 84%
04:00 +17°C° 0 mm 2 mps 746 mmHg 82%
05:00 +17°C° 0 mm 2 mps 746 mmHg 80%
06:00 +18°C° 0.2 mm 3 mps 746 mmHg 81%
07:00 +19°C° 0.2 mm 3 mps 746 mmHg 81%
08:00 +19°C° 0.2 mm 4 mps 746 mmHg 82%
09:00 +21°C° 0.1 mm 4 mps 746 mmHg 73%
10:00 +23°C° 0.1 mm 4 mps 746 mmHg 64%
11:00 +26°C° 0.1 mm 5 mps 746 mmHg 55%
12:00 +27°C° 0 mm 5 mps 746 mmHg 48%
13:00 +28°C° 0 mm 6 mps 746 mmHg 41%
14:00 +29°C° 0 mm 6 mps 745 mmHg 34%
15:00 +28°C° 0 mm 5 mps 746 mmHg 37%
16:00 +28°C° 0 mm 5 mps 746 mmHg 40%
17:00 +27°C° 0 mm 4 mps 746 mmHg 42%
18:00 +25°C° 0 mm 3 mps 746 mmHg 51%
19:00 +22°C° 0 mm 3 mps 747 mmHg 60%
20:00 +20°C° 0 mm 2 mps 747 mmHg 69%
21:00 +19°C° 0 mm 2 mps 747 mmHg 72%
22:00 +19°C° 0 mm 2 mps 747 mmHg 75%
23:00 +19°C° 0 mm 1 mps 747 mmHg 78%

2 August, Monday

Time Temperature Precipitation Wind Pressure Humidity
00:00 +19°C° 0 mm 1 mps 747 mmHg 79%
01:00 +19°C° 0 mm 1 mps 747 mmHg 79%
02:00 +19°C° 0 mm 1 mps 747 mmHg 80%
03:00 +18°C° 1 mm 1 mps 747 mmHg 85%
04:00 +18°C° 1 mm 1 mps 747 mmHg 91%
05:00 +16°C° 1 mm 1 mps 747 mmHg 96%
06:00 +16°C° 2.7 mm 1 mps 746 mmHg 97%
07:00 +16°C° 2.7 mm 1 mps 746 mmHg 97%
08:00 +16°C° 2.7 mm 1 mps 746 mmHg 98%
09:00 +16°C° 1.3 mm 1 mps 746 mmHg 98%
10:00 +16°C° 1.3 mm 1 mps 746 mmHg 98%
11:00 +18°C° 1.3 mm 1 mps 745 mmHg 97%
12:00 +18°C° 0.4 mm 1 mps 745 mmHg 98%
13:00 +18°C° 0.4 mm 1 mps 745 mmHg 98%
14:00 +18°C° 0.4 mm 1 mps 745 mmHg 98%
15:00 +18°C° 0.6 mm 1 mps 745 mmHg 97%
16:00 +18°C° 0.6 mm 1 mps 745 mmHg 96%
17:00 +18°C° 0.6 mm 1 mps 745 mmHg 96%
18:00 +18°C° 0 mm 1 mps 744 mmHg 96%
19:00 +16°C° 0 mm 1 mps 744 mmHg 96%
20:00 +16°C° 0 mm 1 mps 744 mmHg 96%
21:00 +16°C° 0 mm 2 mps 745 mmHg 96%
22:00 +15°C° 0 mm 2 mps 745 mmHg 96%
23:00 +14°C° 0 mm 3 mps 745 mmHg 96%

3 August, Tuesday

Time Temperature Precipitation Wind Pressure Humidity
00:00 +14°C° 0 mm 3 mps 745 mmHg 96%
01:00 +13°C° 0 mm 3 mps 745 mmHg 97%
02:00 +13°C° 0 mm 3 mps 745 mmHg 97%
03:00 +12°C° 0 mm 3 mps 746 mmHg 97%
04:00 +12°C° 0 mm 3 mps 746 mmHg 97%
05:00 +12°C° 0 mm 3 mps 747 mmHg 97%
06:00 +13°C° 0 mm 3 mps 747 mmHg 93%
07:00 +14°C° 0 mm 4 mps 747 mmHg 88%
08:00 +15°C° 0 mm 4 mps 747 mmHg 84%
09:00 +18°C° 0 mm 4 mps 748 mmHg 73%
10:00 +19°C° 0 mm 4 mps 748 mmHg 62%
11:00 +21°C° 0 mm 4 mps 748 mmHg 51%
12:00 +21°C° 0 mm 4 mps 749 mmHg 51%
13:00 +21°C° 0 mm 4 mps 749 mmHg 52%
14:00 +21°C° 0 mm 4 mps 749 mmHg 52%
15:00 +21°C° 0 mm 4 mps 750 mmHg 52%
16:00 +21°C° 0 mm 4 mps 750 mmHg 53%
17:00 +21°C° 0 mm 3 mps 750 mmHg 53%
18:00 +20°C° 0 mm 2 mps 751 mmHg 60%
19:00 +19°C° 0 mm 1 mps 751 mmHg 66%
20:00 +15°C° 0 mm 0 mps 751 mmHg 73%
21:00 +16°C° 0 mm 1 mps 752 mmHg 74%
22:00 +15°C° 0 mm 1 mps 752 mmHg 76%
23:00 +14°C° 0 mm 1 mps 752 mmHg 77%

4 August, Wednesday

Time Temperature Precipitation Wind Pressure Humidity
00:00 +14°C° 0 mm 1 mps 753 mmHg 77%
01:00 +14°C° 0 mm 1 mps 753 mmHg 76%
02:00 +14°C° 0 mm 1 mps 753 mmHg 76%
03:00 +14°C° 0 mm 1 mps 754 mmHg 77%
04:00 +14°C° 0 mm 1 mps 754 mmHg 78%
05:00 +14°C° 0 mm 1 mps 754 mmHg 79%
06:00 +15°C° 0 mm 1 mps 754 mmHg 75%
07:00 +18°C° 0 mm 1 mps 754 mmHg 71%
08:00 +19°C° 0 mm 1 mps 754 mmHg 67%
09:00 +21°C° 0 mm 1 mps 754 mmHg 60%
10:00 +22°C° 0 mm 1 mps 754 mmHg 54%
11:00 +24°C° 0 mm 1 mps 754 mmHg 47%
12:00 +24°C° 0 mm 1 mps 754 mmHg 49%
13:00 +24°C° 0 mm 1 mps 754 mmHg 51%
14:00 +23°C° 0 mm 1 mps 754 mmHg 53%
15:00 +23°C° 0 mm 1 mps 754 mmHg 56%
16:00 +23°C° 0 mm 1 mps 754 mmHg 59%
17:00 +22°C° 0 mm 1 mps 754 mmHg 62%
18:00 +20°C° 0.4 mm 2 mps 754 mmHg 70%
19:00 +18°C° 0.4 mm 2 mps 754 mmHg 79%
20:00 +17°C° 0.4 mm 2 mps 754 mmHg 87%
21:00 +16°C° 0.3 mm 1 mps 754 mmHg 89%
22:00 +16°C° 0.3 mm 1 mps 755 mmHg 91%
23:00 +15°C° 0.3 mm 1 mps 755 mmHg 92%
Show more

We Need Your Consent

Meteoprog and our Service Providers may store and access personal data such as cookies, device identifiers or other similar technologies on your device and process such data to personalise content and ads, as well as provide social media features and to analyse the traffic.

  • Store and/or access information on your device

    Cookies, device identifiers or other information can be stored or accessed on your device for the purposes indicated above.

  • Personalised ads and content, ad and content measurement, audience insights, and products development

    Ads and content can be personalised based on a profile. More data can be added to better personalise ads and content. Ad and content performance can be measured. Insights about the audience who saw the ads and content can be derived. Such data can be used to develop or improve user’s experience, systems and software.

By clicking ‘I Agree’ you will allow the use of indicated cookies, device identifiers, web beacons or other similar technologies. Your settings can be changed in the browser on your device.

For certain purposes, legitimate interests may be relied on, rather than consent. You can read more about this in our Privacy and Cookie Policy.